Back to catalog

DIRECTV 1R

AliveCommunicationsGEO
NORAD 25937·PAYLOAD·🇺🇸 United States

Launched Oct 10, 1999 from Sea Launch Platform

Loading…

TLE

FreshSource: Space-Track

Epoch: Sep 14, 2026, 06:47 UTC

1 25937U 99056A   26257.28305101 -.00000245  00000-0  00000-0 0  9999
2 25937  10.8523  47.6555 0004184 209.3283 163.3010  0.98962333 98108

Track DIRECTV 1R in real time with AllMySat

Download on the App Store